Location: Mapua
(41.2500°S, 173.1000°E)
Time: 13:02:56
(UTC+12:00)

N. Korean satellite - Visible Passes

Search period start: 01 July 2022 00:00
Search period end: 11 July 2022 00:00
Orbit: 433 x 477 km, 97.3° (Epoch: 30 June)

Date Brightness Start Highest point End Pass type
(mag) Time Alt. Az. Time Alt. Az. Time Alt. Az.
01 Jul 7.6 18:03:05 10° S 18:06:36 48° WSW 18:10:02 10° NNW visible
03 Jul 8.9 18:29:33 10° SSW 18:32:27 23° WSW 18:35:19 10° WNW visible
04 Jul 7.1 17:55:38 10° S 17:59:13 61° WSW 18:02:42 10° NNW visible
05 Jul 9.6 18:56:49 10° SW 18:58:11 12° WSW 18:59:32 10° W visible
06 Jul 8.6 18:21:54 10° S 18:25:02 28° WSW 18:28:05 10° NW visible
07 Jul 6.7 17:48:05 10° S 17:51:42 79° WSW 17:55:12 10° NNW visible
08 Jul 9.5 18:48:43 10° SSW 18:50:41 14° WSW 18:52:38 10° W visible
09 Jul 8.2 18:14:10 10° S 18:17:28 34° WSW 18:20:40 10° NW visible
10 Jul 6.5 17:40:27 10° SSE 17:44:02 81° E 17:47:32 10° N visible
